Location: Vale
(35.4830°N, 81.3830°W)
Time: 14:12:39
(UTC-04:00)

SR - All Passes

Search period start: 18 April 2014 00:00
Search period end: 28 April 2014 00:00
Orbit: 581 x 886 km, 66.7° (Epoch: 17 April)

Date Brightness Start Highest point End Pass type
(mag) Time Alt. Az. Time Alt. Az. Time Alt. Az.
18 Apr - 00:35:39 10° W 00:37:51 12° WSW 00:40:06 10° SW visible
18 Apr - 13:19:44 10° SSW 13:23:59 74° WNW 13:28:29 10° NNE daylight
18 Apr - 22:02:57 10° NNW 22:08:06 42° ENE 22:13:34 10° SE visible
18 Apr - 23:45:35 10° NW 23:50:06 26° WSW 23:54:48 10° SSW visible
19 Apr - 12:31:58 10° S 12:36:01 46° ESE 12:40:18 10° NE daylight
19 Apr - 14:15:47 10° W 14:18:28 16° NW 14:21:15 10° NNW daylight
19 Apr - 21:15:32 10° N 21:19:49 23° NE 21:24:17 10° ESE visible
19 Apr - 22:56:53 10° NW 23:02:13 51° WSW 23:07:51 10° S visible
20 Apr - 11:45:09 10° SSE 11:48:14 20° ESE 11:51:26 10° ENE daylight
20 Apr - 13:26:15 10° WSW 13:30:05 31° NW 13:34:09 10° N daylight
20 Apr - 20:28:58 10° NNE 20:31:19 13° NE 20:33:44 10° ENE visible
20 Apr - 22:08:41 10° NNW 22:14:12 83° ENE 22:20:04 10° SSE visible
20 Apr - 23:53:47 10° W 23:55:48 12° WSW 23:57:51 10° SW visible
21 Apr - 12:37:40 10° SSW 12:41:54 71° WNW 12:46:26 10° NNE daylight
21 Apr - 21:20:51 10° NNW 21:26:04 43° ENE 21:31:35 10° SE visible
21 Apr - 23:03:34 10° NW 23:08:03 25° WSW 23:12:41 10° SSW visible
22 Apr - 11:49:50 10° S 11:53:56 48° ESE 11:58:15 10° NE daylight
22 Apr - 13:33:47 10° W 13:36:24 15° NW 13:39:08 10° NNW daylight
22 Apr - 20:33:24 10° N 20:37:46 24° NE 20:42:20 10° ESE visible
22 Apr - 22:14:49 10° NW 22:20:10 49° WSW 22:25:47 10° S visible
23 Apr - 11:02:57 10° SSE 11:06:08 21° ESE 11:09:26 10° ENE daylight
23 Apr - 12:44:10 10° WSW 12:48:00 30° NW 12:52:03 10° N daylight
23 Apr - 19:46:43 10° NNE 19:49:17 13° NE 19:51:54 10° ENE daylight
23 Apr - 21:26:36 10° NNW 21:32:09 86° ENE 21:38:01 10° SSE visible
23 Apr - 23:11:55 10° W 23:13:43 12° WSW 23:15:32 10° WSW visible
24 Apr - 11:55:33 10° SW 11:59:48 68° WNW 12:04:21 10° NNE daylight
24 Apr - 20:38:44 10° NNW 20:44:00 45° ENE 20:49:34 10° SE visible
24 Apr - 22:21:32 10° NW 22:25:58 24° WSW 22:30:33 10° SSW visible
25 Apr - 11:07:41 10° S 11:11:48 50° ESE 11:16:11 10° NE daylight
25 Apr - 12:51:45 10° W 12:54:19 15° NW 12:56:59 10° NNW daylight
25 Apr - 19:51:15 10° N 19:55:42 25° NE 20:00:22 10° ESE daylight
25 Apr - 21:32:44 10° NW 21:38:05 48° WSW 21:43:41 10° S visible
26 Apr - 10:20:43 10° SSE 10:23:59 22° ESE 10:27:23 10° ENE daylight
26 Apr - 12:02:05 10° WSW 12:05:53 30° NW 12:09:56 10° N daylight
26 Apr - 19:04:28 10° NNE 19:07:13 14° NE 19:10:01 10° ENE daylight
26 Apr - 20:44:28 10° NNW 20:50:04 88° ENE 20:55:57 10° SSE visible
26 Apr - 22:30:04 10° W 22:31:36 11° WSW 22:33:09 10° WSW visible
27 Apr - 11:13:24 10° SW 11:17:40 66° WNW 11:22:14 10° NNE daylight
27 Apr - 19:56:35 10° NNW 20:01:55 46° ENE 20:07:31 10° SE daylight
27 Apr - 21:39:27 10° WNW 21:43:51 24° WSW 21:48:23 10° SSW visible
